Weather History for Everett, WA

Change the Weather History Date:

Saturday, April 27, 2013

  Actual Average Record
Temperature  
Mean Temperature 52 °F -  
Max Temperature 55 °F 61 °F 76 °F (1971)
Min Temperature 48 °F 43 °F 32 °F (1954)
Degree Days  
Heating Degree Days 14    
Growing Degree Days 2 (Base 50)    
Moisture  
Dew Point 44 °F    
Average Humidity 80    
Maximum Humidity 96    
Minimum Humidity 55    
Precipitation  
Precipitation 0.16 in - - ()
Sea Level Pressure  
Sea Level Pressure 30.20 in    
Wind  
Wind Speed 5 mph (SW)    
Max Wind Speed 21 mph    
Max Gust Speed 26 mph    
Visibility 7 miles    
Events Rain    
Averages and records for this station are not official NWS values.
T = Trace of Precipitation, MM = Missing Value Source: NWS Daily Summary

Daily Weather History Graph

Daily Weather History Graph

Search for Another Location

Airport:

Trip Planner

Search our weather history database for the weather conditions in past years. The results will help you decide how hot, cold, wet, or windy it might be!

Date:

Astronomy

Apr. 27, 2013 Rise Set
Actual Time 5:57 AM PDT 8:16 PM PDT
Civil Twilight 5:23 AM PDT 8:51 PM PDT
Nautical Twilight 4:40 AM PDT 9:34 PM PDT
Astronomical Twilight 3:52 AM PDT 10:22 PM PDT
Moon 11:00 PM PDT (4/27) 7:13 AM PDT (4/27)
Length of Visible Light 15h 27m
Length of Day
14h 19m
Waning Gibbous, 95% of the Moon is Illuminated
Apr 27
Waning Gibbous
May 2
Last Quarter
May 9
New
May 17
First Quarter
May 24
Full

Hourly Weather History & Observations

Time (PDT) Temp. Dew Point Humidity Pressure Visibility Wind Dir Wind Speed Gust Speed Precip Events Conditions
12:53 AM 52.0 °F 42.1 °F 69% 30.21 in 10.0 mi Calm Calm - N/A   Clear
1:53 AM 53.1 °F 41.0 °F 64% 30.21 in 10.0 mi Calm Calm - N/A   Clear
2:53 AM 52.0 °F 42.1 °F 69% 30.19 in 10.0 mi Calm Calm - N/A   Clear
3:53 AM 52.0 °F 42.1 °F 69% 30.18 in 10.0 mi Calm Calm - N/A   Mostly Cloudy
4:53 AM 52.0 °F 42.1 °F 69% 30.17 in 10.0 mi Calm Calm - N/A   Clear
5:53 AM 51.1 °F 43.0 °F 74% 30.17 in 10.0 mi Calm Calm - N/A   Clear
6:53 AM 52.0 °F 39.0 °F 61% 30.17 in 10.0 mi SSW 10.4 mph - N/A   Partly Cloudy
7:53 AM 52.0 °F 37.9 °F 59% 30.16 in 10.0 mi South 10.4 mph 20.7 mph N/A   Clear
8:53 AM 53.1 °F 37.9 °F 57% 30.17 in 10.0 mi South 11.5 mph - N/A   Scattered Clouds
9:53 AM 53.1 °F 37.0 °F 55% 30.19 in 10.0 mi South 11.5 mph - N/A   Overcast
10:53 AM 52.0 °F 42.1 °F 69% 30.20 in 10.0 mi South 15.0 mph 24.2 mph N/A   Overcast
11:53 AM 53.1 °F 43.0 °F 69% 30.21 in 10.0 mi South 13.8 mph 19.6 mph N/A   Overcast
12:14 PM 53.6 °F 42.8 °F 67% 30.21 in 10.0 mi South 15.0 mph 23.0 mph N/A   Overcast
12:53 PM 53.1 °F 43.0 °F 69% 30.22 in 10.0 mi SSE 17.3 mph 23.0 mph N/A   Overcast
1:53 PM 53.1 °F 43.0 °F 69% 30.22 in 10.0 mi South 11.5 mph - N/A   Overcast
2:53 PM 52.0 °F 44.1 °F 74% 30.21 in 10.0 mi SSE 11.5 mph 17.3 mph 0.00 in   Overcast
3:53 PM 53.1 °F 45.0 °F 74% 30.20 in 10.0 mi SSE 10.4 mph - N/A   Overcast
4:53 PM 55.0 °F 45.0 °F 69% 30.19 in 10.0 mi South 20.7 mph 26.5 mph N/A   Overcast
5:53 PM 54.0 °F 45.0 °F 72% 30.19 in 10.0 mi South 16.1 mph - N/A   Overcast
6:53 PM 53.1 °F 46.0 °F 77% 30.18 in 10.0 mi South 19.6 mph - N/A   Overcast
7:53 PM 51.1 °F 46.9 °F 86% 30.18 in 9.0 mi SW 8.1 mph - 0.00 in Rain Light Rain
8:23 PM 48.2 °F 46.4 °F 93% 30.19 in 10.0 mi West 3.5 mph - 0.00 in Rain Light Rain
8:32 PM 48.2 °F 46.4 °F 93% 30.19 in 9.0 mi WSW 5.8 mph - 0.00 in Rain Light Rain
8:53 PM 48.9 °F 46.9 °F 93% 30.20 in 3.0 mi WSW 3.5 mph - 0.01 in Rain Light Rain
9:05 PM 48.2 °F 46.4 °F 93% 30.20 in 2.0 mi Calm Calm - 0.02 in Rain Light Rain
9:22 PM 48.2 °F 46.4 °F 93% 30.20 in 3.0 mi Calm Calm - 0.03 in Rain Light Rain
9:41 PM 48.2 °F 46.4 °F 93% 30.20 in 4.0 mi WNW 3.5 mph - 0.04 in Rain Light Rain
9:50 PM 48.2 °F 46.4 °F 93% 30.21 in 2.5 mi NW 3.5 mph - 0.04 in Rain Light Rain
9:53 PM 48.9 °F 46.9 °F 93% 30.21 in 2.0 mi NW 4.6 mph - 0.05 in Rain Light Rain
9:59 PM 48.2 °F 46.4 °F 93% 30.21 in 1.8 mi WNW 5.8 mph - 0.01 in Rain Light Rain
10:02 PM 48.2 °F 46.4 °F 93% 30.21 in 1.8 mi WNW 4.6 mph - 0.01 in Rain Light Rain
10:05 PM 48.2 °F 46.4 °F 93% 30.21 in 2.0 mi WNW 4.6 mph - N/A Rain Light Rain
10:19 PM 48.2 °F 46.4 °F 93% 30.21 in 2.5 mi NW 3.5 mph - 0.03 in Rain Light Rain
10:32 PM 48.2 °F 46.4 °F 93% 30.21 in 2.5 mi Calm Calm - 0.04 in Rain Light Rain
10:41 PM 48.2 °F 46.4 °F 93% 30.21 in 3.0 mi Calm Calm - 0.04 in Rain Light Rain
10:53 PM 48.9 °F 46.0 °F 90% 30.22 in 2.5 mi Calm Calm - 0.05 in Rain Light Rain
10:56 PM 48.2 °F 46.4 °F 93% 30.21 in 3.0 mi Calm Calm - 0.00 in Rain Light Rain
11:35 PM 48.2 °F 46.4 °F 93% 30.21 in 2.5 mi Calm Calm - 0.03 in Rain Light Rain
11:53 PM 48.0 °F 46.9 °F 96% 30.22 in 3.0 mi Calm Calm - 0.05 in Rain Light Rain